Погода в Сухотском

Россия / Республика Северная Осетия — Алания     43°40′29″N   44°26′36″E
темп.,
°C
ветер,
м/с
пор.,
м/с
влажн.,
%
обл.,
%
осадки,
мм/ч
давл.,
гПа
погр.,
м
21 апреля, ср
ср2100:00+16сз4987100 0.1 1012496
03:00+16сз4964100 0.1 1014586
06:00+14зсз3765100 0.0 1016453
09:00+14ссз3567100 0.0 1019578
12:00+14с3462100 0.0 1020903
15:00+15св3365100 0.0 1021970
18:00+14св2470100 0.0 1021190
21:00+13св2269100 0.0 102234
22 апреля, чт
чт2200:00+12всв2272100 0.0 102144
03:00+12всв0183100 0.3 102111
06:00+12в1181100 0.0 102223
09:00+12всв2378100 0.0 1022238
12:00+16св445860 0.0 10221053
15:00+16св5558100 0.0 10211101
18:00+14св3772100 0.0 1022307
21:00+11всв3591100 2.3 1022251
23 апреля, пт
пт2300:00+11ссв1296100 2.9 1021135
03:00+11сз3498100 5.9 1021245
06:00+11с3497100 8.4 1023274
09:00+10з2393100 11.1 1024250
12:00+14зюз3473100 1.3 1023716
15:00+17з255633 1.3 10221442
18:00+16ссв34664 0.0 102169
21:00+12юв22755 0.0 102111
24 апреля, сб
сб2400:00+11в1178100 0.0 101910
03:00+11всв1178100 0.0 101910
06:00+11ююв0078100 0.0 101910
09:00+16вюв236254 0.0 1019551
12:00+20в33469 0.0 10181454
15:00+21в3343100 0.0 10171692
18:00+18ссз115491 0.0 101811
21:00+15в236399 0.0 101855
25 апреля, вс
вс2500:00+14в1165100 0.0 101920
03:00+13с2269100 0.0 101952
06:00+12с3682100 0.0 1020328
09:00+13св348389 0.0 1020587
12:00+18всв4457100 0.1 10181330
15:00+18св2353100 0.1 10161331
18:00+15с2678100 0.0 1016463
21:00+12ссв4879100 0.1 1017519